Location: Newark
(44.9333°N, 0.5667°E)
Time: 06:15:15
(UTC+00:00)

N. Korean satellite - Pass Details

Date: 17 December 2019
Orbit: 454 x 508 km, 97.2° (Epoch: 20 January)

Event Time Altitude Azimuth Distance (km) Brightness Sun altitude
Rises 05:09:28 0° 24° (NNE) 2,518 10.4 -23.8°
Reaches altitude 10° 05:11:50 10° 39° (NE) 1,626 9.6 -23.4°
Maximum altitude 05:14:42 24° 95° (E) 1,008 8.9 -22.9°
Drops below altitude 10° 05:17:31 10° 150° (SSE) 1,597 9.7 -22.4°
Sets 05:19:49 0° 165° (SSE) 2,460 10.5 -22.0°
